TimePST,TemperatureF,Dew PointF,Humidity,Sea Level PressureIn,VisibilityMPH,Wind Direction,Wind SpeedMPH,Gust SpeedMPH,PrecipitationIn,Events,Conditions,WindDirDegrees,DateUTC
12:53 AM,44.1,39.0,82,30.06,10.0,Calm,Calm,-,N/A,,Clear,0,2012-12-29 08:53:00
1:53 AM,45.0,39.0,80,30.05,10.0,ENE,3.5,-,N/A,,Overcast,60,2012-12-29 09:53:00
2:53 AM,46.0,42.1,86,30.03,10.0,Calm,Calm,-,N/A,,Overcast,0,2012-12-29 10:53:00
4:23 AM,50.0,39.2,66,30.01,10.0,East,5.8,-,N/A,,Overcast,90,2012-12-29 12:23:00
4:53 AM,53.1,41.0,64,30.02,10.0,ESE,10.4,-,N/A,,Overcast,110,2012-12-29 12:53:00
5:04 AM,53.6,42.8,67,30.01,10.0,East,9.2,-,0.00,Rain,Light Rain,100,2012-12-29 13:04:00
5:22 AM,51.8,42.8,71,30.02,2.5,SSE,13.8,26.5,0.03,Rain,Rain,150,2012-12-29 13:22:00
5:53 AM,48.9,43.0,80,30.04,2.0,NW,3.5,-,0.13,Rain,Heavy Rain,320,2012-12-29 13:53:00
6:53 AM,48.9,45.0,86,30.03,4.0,ENE,10.4,-,0.02,,Overcast,70,2012-12-29 14:53:00
7:53 AM,48.9,43.0,80,30.03,7.0,East,9.2,-,0.00,Rain,Light Rain,100,2012-12-29 15:53:00
8:53 AM,51.1,43.0,74,30.04,7.0,East,11.5,-,0.00,,Overcast,80,2012-12-29 16:53:00
9:53 AM,53.1,43.0,69,30.04,10.0,ESE,11.5,-,N/A,,Overcast,110,2012-12-29 17:53:00
10:53 AM,54.0,43.0,66,30.03,10.0,ESE,10.4,-,N/A,,Overcast,120,2012-12-29 18:53:00
11:53 AM,57.0,45.0,64,30.00,10.0,SE,12.7,-,N/A,,Overcast,130,2012-12-29 19:53:00
12:53 PM,55.9,45.0,67,29.98,10.0,SE,12.7,-,N/A,,Mostly Cloudy,130,2012-12-29 20:53:00
1:53 PM,55.9,45.0,67,29.96,10.0,SE,12.7,-,N/A,,Clear,140,2012-12-29 21:53:00
2:20 PM,55.4,44.6,67,29.97,10.0,SE,12.7,-,N/A,,Scattered Clouds,140,2012-12-29 22:20:00
2:43 PM,55.4,44.6,67,29.97,10.0,SE,10.4,-,N/A,Thunderstorm,Thunderstorm,140,2012-12-29 22:43:00
2:53 PM,55.9,45.0,67,29.98,10.0,SE,11.5,-,N/A,Thunderstorm,Thunderstorm,140,2012-12-29 22:53:00
3:53 PM,51.1,39.0,63,29.99,6.0,NE,4.6,-,0.00,Rain-Thunderstorm,Light Thunderstorms and Rain,50,2012-12-29 23:53:00
4:19 PM,50.0,41.0,71,29.99,6.0,NW,6.9,-,N/A,Rain,Rain,310,2012-12-30 00:19:00
4:53 PM,48.0,39.9,74,30.00,6.0,NW,9.2,-,N/A,Rain,Light Rain,320,2012-12-30 00:53:00
5:53 PM,48.0,41.0,77,30.00,10.0,NNE,4.6,-,0.09,,Overcast,20,2012-12-30 01:53:00
6:53 PM,46.0,42.1,86,30.01,10.0,Calm,Calm,-,N/A,,Scattered Clouds,0,2012-12-30 02:53:00
7:53 PM,43.0,41.0,93,30.02,8.0,Calm,Calm,-,N/A,,Clear,0,2012-12-30 03:53:00
8:53 PM,43.0,39.9,89,30.02,9.0,Calm,Calm,-,N/A,,Clear,0,2012-12-30 04:53:00
9:53 PM,42.1,39.9,92,30.03,10.0,Calm,Calm,-,N/A,,Clear,0,2012-12-30 05:53:00
10:53 PM,39.9,39.0,97,30.03,8.0,Calm,Calm,-,N/A,,Clear,0,2012-12-30 06:53:00
11:53 PM,39.0,37.9,96,30.03,9.0,Calm,Calm,-,N/A,,Clear,0,2012-12-30 07:53:00